^^
Saratoga-Weather Station Historical Data
Daily Summary for March 2, 2020 Units:  English    Metric   Both
Daily Weekly Monthly Yearly Custom
  High: Low: Average:
Temperature: 70.7 °F 54.7 °F 65.7 °F
Dew Point: 60.6 °F 52 °F 59 °F
Humidity: 92% 64% 80%
Wind Speed: 16.1mph 0mph 3.8mph
Wind Gust: 22mph - -
Wind- - WSW
Pressure: 30 in 29.9 in -
Precipitation: 0.11 in    
Historical Graphs
 
 
Tabular Data for March 2, 2020
Time Temperature Dew Point Pressure Wind Wind Speed Wind Gust Humidity Rainfall Rate (Hourly) solar
00:00 63.7 °F 59.7 °F 29.9 in NNW 2.9 mph 7 mph 87% 0 in 0 W/m2
00:05 63.7 °F 59.7 °F 29.9 in WNW 0.9 mph 9 mph 87% 0 in 0 W/m2
00:10 63.7 °F 59.7 °F 29.9 in North 2.9 mph 5 mph 87% 0 in 0 W/m2
00:15 63.7 °F 59.4 °F 29.9 in NW 2.9 mph 7 mph 86% 0 in 0 W/m2
00:20 63.7 °F 59.4 °F 29.9 in NE 2.9 mph 4 mph 86% 0 in 0 W/m2
00:25 63.9 °F 59.5 °F 29.9 in WNW 4 mph 4 mph 86% 0 in 0 W/m2
00:30 63.9 °F 59.5 °F 29.9 in WNW 0.9 mph 7 mph 86% 0 in 0 W/m2
00:35 63.9 °F 59.9 °F 29.9 in North 2 mph 7 mph 87% 0 in 0 W/m2
00:40 63.9 °F 59.9 °F 29.9 in West 2.9 mph 5 mph 87% 0 in 0 W/m2
00:45 63.7 °F 59.7 °F 29.9 in NW 2 mph 7 mph 87% 0 in 0 W/m2
00:50 63.7 °F 60.1 °F 29.9 in West 8.9 mph 10 mph 88% 0 in 0 W/m2
00:55 63.7 °F 60.1 °F 29.9 in SSE 0.9 mph 4 mph 88% 0 in 0 W/m2
01:00 63.5 °F 59.9 °F 29.9 in NW 2 mph 6 mph 88% 0 in 0 W/m2
01:05 63.5 °F 59.9 °F 29.9 in NW 2.9 mph 7 mph 88% 0 in 0 W/m2
01:10 63.5 °F 59.9 °F 29.9 in North 2 mph 9 mph 88% 0 in 0 W/m2
01:15 63.3 °F 59.7 °F 29.9 in East 0.9 mph 3 mph 88% 0 in 0 W/m2
01:20 63.3 °F 59.7 °F 29.9 in North 2 mph 9 mph 88% 0 in 0 W/m2
01:25 63.3 °F 59.7 °F 29.9 in North 2.9 mph 7 mph 88% 0 in 0 W/m2
01:30 63.3 °F 60.1 °F 29.9 in NW 4 mph 4 mph 89% 0 in 0 W/m2
01:35 63.3 °F 60.1 °F 29.9 in NNW 4 mph 8 mph 89% 0 in 0 W/m2
01:40 63.3 °F 60.1 °F 29.9 in NNE 2 mph 9 mph 89% 0 in 0 W/m2
01:45 63.3 °F 60.1 °F 29.9 in West 6 mph 12 mph 89% 0 in 0 W/m2
01:50 63.3 °F 60.1 °F 29.9 in ENE 2.9 mph 6 mph 89% 0 in 0 W/m2
01:55 63.3 °F 60.1 °F 29.9 in NW 2.9 mph 12 mph 89% 0 in 0 W/m2
02:00 63.3 °F 60.1 °F 29.9 in NNE 2.9 mph 12 mph 89% 0 in 0 W/m2
02:05 63.3 °F 60.1 °F 29.9 in WNW 2.9 mph 4 mph 89% 0 in 0 W/m2
02:11 63.3 °F 60.1 °F 29.9 in West 0.9 mph 12 mph 89% 0 in 0 W/m2
02:16 63.3 °F 60.1 °F 29.9 in SW 2.9 mph 8 mph 89% 0 in 0 W/m2
02:21 63.5 °F 59.9 °F 29.9 in SSW 2 mph 13 mph 88% 0 in 0 W/m2
02:26 63.7 °F 60.1 °F 29.9 in West 6 mph 6 mph 88% 0 in 0 W/m2
02:31 63.7 °F 60.1 °F 29.9 in SW 2 mph 13 mph 88% 0 in 0 W/m2
02:36 63.9 °F 60.3 °F 29.9 in WSW 4 mph 4 mph 88% 0 in 0 W/m2
02:41 63.9 °F 60.3 °F 29.9 in Calm   4 mph 88% 0 in 0 W/m2
02:46 63.9 °F 60.3 °F 29.9 in Calm   4 mph 88% 0 in 0 W/m2
02:51 63.7 °F 60.1 °F 29.9 in SSE 4 mph 10 mph 88% 0 in 0 W/m2
02:56 63.7 °F 60.1 °F 29.9 in NNW 2 mph 3 mph 88% 0 in 0 W/m2
03:01 63.7 °F 60.1 °F 29.9 in NNE 4.9 mph 8 mph 88% 0 in 0 W/m2
03:06 63.7 °F 60.1 °F 29.9 in NNW 4.9 mph 5 mph 88% 0 in 0 W/m2
03:11 63.9 °F 59.9 °F 29.9 in NNW 2 mph 9 mph 87% 0 in 0 W/m2
03:16 64 °F 59.7 °F 29.9 in NW 4 mph 5 mph 86% 0 in 0 W/m2
03:21 64 °F 59.7 °F 29.9 in NW 0.9 mph 7 mph 86% 0 in 0 W/m2
03:26 64 °F 60.1 °F 29.9 in NW 2 mph 9 mph 87% 0 in 0 W/m2
03:31 63.9 °F 59.9 °F 29.9 in North 2 mph 5 mph 87% 0 in 0 W/m2
03:36 63.9 °F 59.9 °F 29.9 in North 4 mph 7 mph 87% 0 in 0 W/m2
03:41 63.9 °F 59.9 °F 29.9 in WSW 2 mph 3 mph 87% 0 in 0 W/m2
03:46 63.9 °F 59.9 °F 29.9 in NW 2.9 mph 5 mph 87% 0 in 0 W/m2
03:56 63.9 °F 59.9 °F 29.9 in WNW 2.9 mph 6 mph 87% 0 in 0 W/m2
04:01 64 °F 60.1 °F 29.9 in SW 2.9 mph 5 mph 87% 0 in 0 W/m2
04:06 64 °F 60.1 °F 29.9 in SW 2.9 mph 8 mph 87% 0 in 0 W/m2
04:11 64 °F 60.1 °F 29.9 in ESE 2.9 mph 6 mph 87% 0 in 0 W/m2
04:16 64 °F 60.1 °F 29.9 in West 2.9 mph 3 mph 87% 0 in 0 W/m2
04:21 64 °F 60.1 °F 29.9 in WSW 2 mph 7 mph 87% 0 in 0 W/m2
04:26 64.2 °F 60.3 °F 29.9 in NNE 2.9 mph 11 mph 87% 0 in 0 W/m2
04:31 64.2 °F 59.9 °F 29.9 in ENE 2.9 mph 5 mph 86% 0 in 0 W/m2
04:36 64.2 °F 59.9 °F 29.9 in East 2.9 mph 11 mph 86% 0 in 0 W/m2
04:41 64.2 °F 59.9 °F 29.9 in WNW 4 mph 6 mph 86% 0 in 0 W/m2
04:46 64.4 °F 60.1 °F 29.9 in NNW 4 mph 9 mph 86% 0 in 0 W/m2
04:51 64.4 °F 60.1 °F 29.9 in WNW 2.9 mph 7 mph 86% 0 in 0 W/m2
04:56 64.4 °F 60.1 °F 29.9 in NE 2 mph 9 mph 86% 0 in 0 W/m2
05:01 64.2 °F 59.9 °F 29.9 in NW 2.9 mph 6 mph 86% 0 in 0 W/m2
05:06 64.4 °F 60.1 °F 29.9 in ENE 2.9 mph 5 mph 86% 0 in 0 W/m2
05:11 64.6 °F 59.9 °F 29.9 in Calm   3 mph 85% 0 in 0 W/m2
05:16 64.6 °F 59.9 °F 29.9 in WNW 2.9 mph 5 mph 85% 0 in 0 W/m2
05:21 64.6 °F 59.9 °F 29.9 in NW 6 mph 8 mph 85% 0 in 0 W/m2
05:26 64.6 °F 59.9 °F 29.9 in West 2.9 mph 4 mph 85% 0 in 0 W/m2
05:31 64.6 °F 59.9 °F 29.9 in Calm   3 mph 85% 0 in 0 W/m2
05:36 64.6 °F 59.9 °F 29.9 in NE 2.9 mph 5 mph 85% 0 in 0 W/m2
05:41 64.8 °F 60.1 °F 29.9 in WNW 2 mph 6 mph 85% 0 in 0 W/m2
05:46 64.8 °F 60.1 °F 29.9 in West 2.9 mph 7 mph 85% 0 in 0 W/m2
05:51 64.8 °F 60.1 °F 29.9 in NW 2 mph 6 mph 85% 0 in 0 W/m2
05:56 64.8 °F 59.9 °F 29.9 in SW 2.9 mph 7 mph 84% 0 in 0 W/m2
06:01 64.8 °F 59.9 °F 29.9 in SSE 10.1 mph 10 mph 84% 0 in 0 W/m2
06:06 64.6 °F 59.7 °F 29.9 in Calm   3 mph 84% 0 in 0 W/m2
06:11 64.6 °F 59.7 °F 29.9 in East 6 mph 10 mph 84% 0 in 0 W/m2
06:17 64.6 °F 59.7 °F 29.9 in South 4.9 mph 10 mph 84% 0 in 0 W/m2
06:22 64.6 °F 59.7 °F 29.9 in NNW 4 mph 5 mph 84% 0 in 0 W/m2
06:27 64.8 °F 59.9 °F 29.9 in NW 2 mph 10 mph 84% 0 in 0 W/m2
06:32 64.8 °F 59.9 °F 29.9 in ESE 2.9 mph 6 mph 84% 0 in 0 W/m2
06:37 64.8 °F 59.9 °F 29.9 in WSW 2.9 mph 3 mph 84% 0 in 0 W/m2
06:42 64.8 °F 59.9 °F 29.9 in NW 2.9 mph 4 mph 84% 0 in 0 W/m2
06:47 64.8 °F 59.5 °F 29.9 in WNW 2 mph 6 mph 83% 0 in 0 W/m2
06:52 64.8 °F 59.5 °F 29.9 in North 4.9 mph 7 mph 83% 0 in 0 W/m2
06:57 64.8 °F 59.5 °F 29.9 in East 4 mph 15 mph 83% 0 in 0 W/m2
07:02 64.9 °F 59.7 °F 29.9 in NW 4.9 mph 10 mph 83% 0 in 0 W/m2
07:07 64.9 °F 59.4 °F 29.9 in West 4 mph 10 mph 82% 0 in 0 W/m2
07:12 64.9 °F 59.4 °F 29.9 in North 4 mph 8 mph 82% 0 in 0 W/m2
07:17 65.1 °F 59.5 °F 29.9 in WNW 4 mph 12 mph 82% 0 in 0 W/m2
07:22 64.9 °F 59.4 °F 29.9 in SW 10.1 mph 10 mph 82% 0 in 0 W/m2
07:27 64.9 °F 59.4 °F 29.9 in WNW 6 mph 9 mph 82% 0 in 0 W/m2
07:32 64.9 °F 59.4 °F 29.9 in WNW 2 mph 6 mph 82% 0 in 0 W/m2
07:37 64.9 °F 59.4 °F 29.9 in NNW 4.9 mph 10 mph 82% 0 in 5 W/m2
07:42 64.9 °F 59.4 °F 29.9 in NE 2 mph 4 mph 82% 0 in 7 W/m2
07:47 64.8 °F 59.2 °F 29.9 in NNW 2 mph 6 mph 82% 0 in 9 W/m2
07:52 64.8 °F 59.2 °F 29.9 in North 2.9 mph 5 mph 82% 0 in 11 W/m2
07:57 64.8 °F 59.2 °F 29.9 in WNW 2.9 mph 7 mph 82% 0 in 14 W/m2
08:02 64.8 °F 59.2 °F 29.9 in North 2.9 mph 4 mph 82% 0 in 18 W/m2
08:07 64.8 °F 59.2 °F 29.9 in NW 2.9 mph 5 mph 82% 0 in 21 W/m2
08:12 64.9 °F 59.4 °F 29.9 in SW 2 mph 7 mph 82% 0 in 21 W/m2
08:17 64.9 °F 59 °F 29.9 in SW 4 mph 12 mph 81% 0 in 23 W/m2
08:22 64.9 °F 59 °F 29.9 in Calm   16 mph 81% 0 in 25 W/m2
08:27 64.9 °F 59 °F 29.9 in West 6 mph 14 mph 81% 0 in 30 W/m2
08:32 64.9 °F 59 °F 29.9 in NNW 2.9 mph 16 mph 81% 0 in 42 W/m2
08:37 64.9 °F 59 °F 29.9 in NW 4 mph 5 mph 81% 0 in 40 W/m2
08:42 64.9 °F 59 °F 29.9 in WSW 13 mph 13 mph 81% 0 in 37 W/m2
08:47 64.9 °F 59 °F 29.9 in NE 4 mph 7 mph 81% 0 in 42 W/m2
08:52 64.9 °F 59 °F 29.9 in NW 2 mph 5 mph 81% 0 in 40 W/m2
08:57 65.1 °F 59.2 °F 29.9 in WSW 2 mph 8 mph 81% 0 in 46 W/m2
09:02 65.1 °F 59.2 °F 29.9 in NNW 0.9 mph 4 mph 81% 0 in 40 W/m2
09:07 65.1 °F 59.2 °F 29.9 in NW 4.9 mph 8 mph 81% 0 in 51 W/m2
09:12 65.1 °F 59.2 °F 29.9 in WNW 0.9 mph 8 mph 81% 0 in 63 W/m2
09:17 65.1 °F 59.2 °F 29.9 in SE 0.9 mph 10 mph 81% 0 in 62 W/m2
09:22 65.1 °F 59.2 °F 29.9 in NE 2 mph 4 mph 81% 0 in 54 W/m2
09:27 65.1 °F 59.2 °F 29.9 in NNW 4 mph 10 mph 81% 0 in 53 W/m2
09:32 65.1 °F 59.2 °F 29.9 in ESE 0.9 mph 6 mph 81% 0 in 60 W/m2
09:37 65.3 °F 59.4 °F 29.9 in WNW 6.9 mph 7 mph 81% 0 in 70 W/m2
09:42 65.3 °F 59.4 °F 29.9 in NNE 8.1 mph 9 mph 81% 0 in 53 W/m2
09:47 65.5 °F 59.5 °F 29.9 in North 4 mph 6 mph 81% 0 in 76 W/m2
09:52 65.5 °F 59.5 °F 29.9 in North 0.9 mph 5 mph 81% 0 in 109 W/m2
09:57 65.5 °F 59.5 °F 29.9 in NW 8.1 mph 12 mph 81% 0 in 125 W/m2
10:02 65.7 °F 59.4 °F 29.9 in SSW 2 mph 12 mph 80% 0 in 130 W/m2
10:07 65.7 °F 59.4 °F 29.9 in WNW 6.9 mph 11 mph 80% 0 in 128 W/m2
10:12 65.8 °F 59.5 °F 29.9 in ENE 2 mph 12 mph 80% 0 in 146 W/m2
10:17 65.8 °F 59.2 °F 29.9 in NNW 6 mph 9 mph 79% 0 in 162 W/m2
10:22 66 °F 59.4 °F 29.9 in East 4 mph 6 mph 79% 0 in 160 W/m2
10:27 66 °F 59.4 °F 29.9 in NNW 4.9 mph 9 mph 79% 0 in 163 W/m2
10:32 66.4 °F 59.7 °F 29.9 in WNW 2 mph 5 mph 79% 0 in 165 W/m2
10:37 66.4 °F 59.4 °F 29.9 in NNW 4 mph 8 mph 78% 0 in 171 W/m2
10:42 66.6 °F 59.2 °F 29.9 in West 4 mph 12 mph 77% 0 in 174 W/m2
10:47 66.7 °F 59.4 °F 29.9 in ENE 2.9 mph 8 mph 77% 0 in 179 W/m2
10:52 66.7 °F 59.4 °F 29.9 in NW 4 mph 12 mph 77% 0 in 178 W/m2
10:57 66.9 °F 59.2 °F 29.9 in NW 6 mph 7 mph 76% 0 in 178 W/m2
11:02 67.1 °F 58.8 °F 29.9 in NW 2.9 mph 12 mph 75% 0 in 174 W/m2
11:07 67.3 °F 59 °F 29.9 in West 2 mph 5 mph 75% 0 in 174 W/m2
11:12 67.3 °F 59 °F 29.9 in NW 2 mph 9 mph 75% 0 in 174 W/m2
11:17 67.5 °F 58.8 °F 29.9 in West 4 mph 16 mph 74% 0 in 176 W/m2
11:22 67.6 °F 59 °F 29.9 in West 0.9 mph 9 mph 74% 0 in 172 W/m2
11:27 67.6 °F 58.6 °F 29.9 in West 4 mph 16 mph 73% 0 in 179 W/m2
11:32 68 °F 59 °F 29.9 in NNW 4 mph 8 mph 73% 0 in 188 W/m2
11:37 68.2 °F 58.8 °F 29.9 in WNW 4.9 mph 8 mph 72% 0 in 179 W/m2
11:42 68.4 °F 59 °F 29.9 in SW 2 mph 4 mph 72% 0 in 179 W/m2
11:47 68.5 °F 58.8 °F 29.9 in West 8.9 mph 9 mph 71% 0 in 260 W/m2
11:52 68.7 °F 59 °F 29.9 in NNE 6 mph 9 mph 71% 0 in 362 W/m2
11:57 68.9 °F 58.6 °F 29.9 in WNW 11 mph 11 mph 70% 0 in 260 W/m2
12:02 68.9 °F 58.3 °F 29.9 in SW 2.9 mph 12 mph 69% 0 in 200 W/m2
12:07 69.1 °F 58.5 °F 29.9 in NE 2 mph 6 mph 69% 0 in 186 W/m2
12:12 69.1 °F 58.5 °F 29.9 in North 2.9 mph 17 mph 69% 0 in 183 W/m2
12:17 69.3 °F 58.6 °F 29.9 in ENE 0.9 mph 7 mph 69% 0 in 218 W/m2
12:22 69.4 °F 58.5 °F 29.9 in NW 4 mph 9 mph 68% 0 in 179 W/m2
12:27 69.4 °F 58.5 °F 29.9 in WNW 2.9 mph 7 mph 68% 0 in 171 W/m2
12:32 69.4 °F 57.9 °F 29.9 in South 4.9 mph 7 mph 67% 0 in 167 W/m2
12:37 69.6 °F 58.1 °F 29.9 in WSW 2.9 mph 15 mph 67% 0 in 162 W/m2
12:42 69.6 °F 58.1 °F 29.9 in NNW 2.9 mph 10 mph 67% 0 in 148 W/m2
12:47 69.6 °F 57.7 °F 29.9 in SW 2.9 mph 15 mph 66% 0 in 135 W/m2
12:52 69.6 °F 58.1 °F 29.9 in West 4 mph 6 mph 67% 0 in 134 W/m2
12:57 69.4 °F 57.9 °F 29.9 in WSW 4.9 mph 9 mph 67% 0 in 107 W/m2
13:03 69.4 °F 57.9 °F 29.9 in NE 2 mph 10 mph 67% 0 in 151 W/m2
13:08 69.4 °F 57.9 °F 29.9 in NE 0.9 mph 8 mph 67% 0 in 181 W/m2
13:13 69.3 °F 57.9 °F 29.9 in South 6 mph 12 mph 67% 0 in 179 W/m2
13:18 69.3 °F 57.9 °F 29.9 in WNW 0.9 mph 7 mph 67% 0 in 190 W/m2
13:23 69.3 °F 58.3 °F 29.9 in NW 2.9 mph 10 mph 68% 0 in 178 W/m2
13:28 69.4 °F 57.9 °F 29.9 in NNE 4 mph 8 mph 67% 0 in 197 W/m2
13:33 69.4 °F 57.6 °F 29.9 in West 2 mph 5 mph 66% 0 in 141 W/m2
13:38 69.4 °F 57.9 °F 29.9 in West 2.9 mph 8 mph 67% 0 in 146 W/m2
13:43 69.6 °F 57.7 °F 29.9 in NNE 4 mph 10 mph 66% 0 in 132 W/m2
13:48 70 °F 58.1 °F 29.9 in SW 4 mph 13 mph 66% 0 in 211 W/m2
13:53 70 °F 58.1 °F 29.9 in West 6 mph 9 mph 66% 0 in 137 W/m2
13:58 70.2 °F 58.3 °F 29.9 in NW 6 mph 14 mph 66% 0 in 114 W/m2
14:03 70.2 °F 58.3 °F 29.9 in NW 2.9 mph 6 mph 66% 0 in 70 W/m2
14:08 70.3 °F 58.1 °F 29.9 in West 2 mph 15 mph 65% 0 in 62 W/m2
14:13 70.3 °F 58.1 °F 29.9 in NW 4 mph 7 mph 65% 0 in 54 W/m2
14:18 70.3 °F 58.1 °F 29.9 in NW 4 mph 14 mph 65% 0 in 44 W/m2
14:23 70.3 °F 57.6 °F 29.9 in SW 8.9 mph 15 mph 64% 0 in 49 W/m2
14:28 70.3 °F 58.1 °F 29.9 in West 2.9 mph 12 mph 65% 0 in 104 W/m2
14:33 70.5 °F 57.7 °F 29.9 in North 2.9 mph 6 mph 64% 0 in 83 W/m2
14:38 70.5 °F 57.7 °F 29.9 in NNW 8.1 mph 8 mph 64% 0 in 72 W/m2
14:43 70.7 °F 57.9 °F 29.9 in WNW 4.9 mph 12 mph 64% 0 in 100 W/m2
14:48 70.5 °F 57.7 °F 29.9 in NNE 2 mph 10 mph 64% 0 in 104 W/m2
14:53 70.3 °F 57.6 °F 29.9 in WNW 0.9 mph 8 mph 64% 0 in 113 W/m2
14:58 70.2 °F 57.4 °F 29.9 in WNW 6.9 mph 12 mph 64% 0 in 95 W/m2
15:03 70.2 °F 57.4 °F 29.9 in NW 0.9 mph 7 mph 64% 0 in 104 W/m2
15:08 70.2 °F 57.9 °F 29.9 in West 6 mph 6 mph 65% 0 in 84 W/m2
15:13 70.2 °F 57.4 °F 29.9 in NE 4.9 mph 7 mph 64% 0 in 109 W/m2
15:18 70.3 °F 58.1 °F 29.9 in SW 2 mph 9 mph 65% 0 in 86 W/m2
15:23 70.2 °F 57.9 °F 29.9 in NW 2 mph 8 mph 65% 0 in 72 W/m2
15:28 70.3 °F 58.1 °F 29.9 in SSE 4 mph 10 mph 65% 0 in 86 W/m2
15:33 70.2 °F 57.9 °F 29.9 in WNW 12.1 mph 16 mph 65% 0 in 79 W/m2
15:38 70.2 °F 57.9 °F 29.9 in NNW 4.9 mph 8 mph 65% 0 in 76 W/m2
15:43 70.2 °F 58.3 °F 29.9 in ENE 0.9 mph 16 mph 66% 0 in 39 W/m2
15:48 70 °F 58.1 °F 29.9 in NNE 0.9 mph 2 mph 66% 0 in 54 W/m2
15:53 70 °F 58.1 °F 29.9 in WNW 0.9 mph 5 mph 66% 0 in 42 W/m2
15:58 70 °F 58.5 °F 29.9 in North 0.9 mph 3 mph 67% 0 in 35 W/m2
16:03 69.8 °F 58.3 °F 29.9 in NNW 2 mph 6 mph 67% 0 in 19 W/m2
16:08 69.8 °F 58.3 °F 29.9 in NW 2 mph 3 mph 67% 0 in 12 W/m2
16:13 69.6 °F 58.1 °F 29.9 in North 4 mph 4 mph 67% 0 in 9 W/m2
16:18 69.6 °F 58.1 °F 29.9 in WNW 2 mph 5 mph 67% 0 in 16 W/m2
16:23 69.6 °F 58.6 °F 29.9 in WSW 4 mph 4 mph 68% 0 in 11 W/m2
16:28 69.6 °F 58.6 °F 29.9 in NNW 0.9 mph 4 mph 68% 0 in 23 W/m2
16:33 69.6 °F 58.6 °F 29.9 in NNW 0.9 mph 8 mph 68% 0 in 32 W/m2
16:38 69.6 °F 58.6 °F 29.9 in WNW 0.9 mph 2 mph 68% 0 in 16 W/m2
16:43 69.4 °F 58.5 °F 29.9 in WSW 2 mph 11 mph 68% 0 in 7 W/m2
16:48 69.4 °F 58.5 °F 29.9 in Calm   2 mph 68% 0 in 5 W/m2
16:53 69.4 °F 58.5 °F 29.9 in NNW 2 mph 11 mph 68% 0 in 5 W/m2
16:58 69.4 °F 58.5 °F 29.9 in NNE 2 mph 4 mph 68% 0 in 0 W/m2
17:03 69.3 °F 58.3 °F 29.9 in NNW 2.9 mph 7 mph 68% 0 in 0 W/m2
17:08 69.3 °F 58.3 °F 29.9 in NNE 0.9 mph 6 mph 68% 0 in 0 W/m2
17:13 69.3 °F 58.6 °F 29.9 in NW 0.9 mph 3 mph 69% 0 in 0 W/m2
17:18 69.3 °F 58.6 °F 29.9 in North 4 mph 4 mph 69% 0 in 0 W/m2
17:23 69.1 °F 58.5 °F 29.9 in WNW 0.9 mph 4 mph 69% 0 in 0 W/m2
17:28 69.1 °F 58.5 °F 29.9 in NW 2.9 mph 6 mph 69% 0 in 0 W/m2
17:33 69.1 °F 58.5 °F 29.9 in WNW 2.9 mph 3 mph 69% 0 in 0 W/m2
17:39 68.9 °F 58.3 °F 29.9 in North 2 mph 2 mph 69% 0 in 0 W/m2
17:44 68.7 °F 58.1 °F 29.9 in Calm   4 mph 69% 0 in 0 W/m2
17:49 68.5 °F 58.8 °F 29.9 in West 2.9 mph 13 mph 71% 0 in 0 W/m2
17:54 68 °F 59 °F 29.9 in North 6 mph 13 mph 73% 0 in 0 W/m2
17:59 66.9 °F 59.9 °F 29.9 in NW 2.9 mph 7 mph 78% 0 in 0 W/m2
18:04 65.8 °F 59.9 °F 29.9 in West 4 mph 12 mph 81% 0 in 0 W/m2
18:09 65.1 °F 59.5 °F 29.9 in NW 2 mph 5 mph 82% 0 in 0 W/m2
18:14 64.8 °F 59.9 °F 29.9 in NW 2 mph 12 mph 84% 0.01 in 0 W/m2
18:19 64.4 °F 59.7 °F 29.9 in NW 4 mph 5 mph 85% 0.01 in 0 W/m2
18:24 64 °F 60.1 °F 29.9 in NE 2 mph 9 mph 87% 0.01 in 0 W/m2
18:29 63.9 °F 59.9 °F 29.9 in NW 4 mph 9 mph 87% 0.01 in 0 W/m2
18:34 63.9 °F 59.9 °F 29.9 in NW 4.9 mph 8 mph 87% 0.02 in 0 W/m2
18:39 63.9 °F 59.9 °F 29.9 in NW 8.9 mph 9 mph 87% 0.02 in 0 W/m2
18:44 63.9 °F 60.3 °F 29.9 in West 8.9 mph 10 mph 88% 0.02 in 0 W/m2
18:49 63.9 °F 60.3 °F 29.9 in WNW 8.1 mph 9 mph 88% 0.02 in 0 W/m2
18:54 63.9 °F 60.3 °F 29.9 in North 2.9 mph 11 mph 88% 0.02 in 0 W/m2
18:59 63.7 °F 60.4 °F 29.9 in WNW 10.1 mph 10 mph 89% 0.02 in 0 W/m2
19:04 63.3 °F 60.1 °F 29.9 in WNW 4 mph 9 mph 89% 0.02 in 0 W/m2
19:09 63.3 °F 60.3 °F 29.9 in NNW 4 mph 8 mph 90% 0.02 in 0 W/m2
19:14 63.1 °F 60.1 °F 29.9 in WNW 0.9 mph 5 mph 90% 0.02 in 0 W/m2
19:19 63 °F 60.3 °F 29.9 in NW 4.9 mph 12 mph 91% 0.02 in 0 W/m2
19:24 63 °F 60.6 °F 29.9 in West 0.9 mph 6 mph 92% 0.03 in 0 W/m2
19:29 62.8 °F 60.4 °F 30 in West 10.1 mph 11 mph 92% 0.04 in 0 W/m2
19:34 62.8 °F 60.4 °F 30 in NW 6.9 mph 7 mph 92% 0.04 in 0 W/m2
19:39 62.4 °F 59.7 °F 30 in West 2.9 mph 6 mph 91% 0.04 in 0 W/m2
19:44 62.4 °F 60.1 °F 30 in WNW 2.9 mph 14 mph 92% 0.04 in 0 W/m2
19:49 62.2 °F 59.9 °F 30 in NW 0.9 mph 7 mph 92% 0.04 in 0 W/m2
19:54 62.1 °F 59.7 °F 30 in WNW 4.9 mph 14 mph 92% 0.04 in 0 W/m2
19:59 61.9 °F 59.5 °F 30 in WNW 4 mph 12 mph 92% 0.05 in 0 W/m2
20:04 61.3 °F 59 °F 30 in NW 8.9 mph 14 mph 92% 0.06 in 0 W/m2
20:09 61.2 °F 58.8 °F 30 in WSW 11 mph 12 mph 92% 0.06 in 0 W/m2
20:14 60.6 °F 58.3 °F 30 in NNW 4.9 mph 9 mph 92% 0.06 in 0 W/m2
20:19 60.3 °F 57.9 °F 30 in West 8.9 mph 11 mph 92% 0.04 in 0 W/m2
20:24 59.4 °F 56.7 °F 30 in WSW 16.1 mph 22 mph 91% 0.04 in 0 W/m2
20:29 58.5 °F 55.6 °F 30 in WNW 11 mph 14 mph 90% 0.03 in 0 W/m2
20:34 57.4 °F 54.5 °F 30 in NNW 10.1 mph 22 mph 90% 0.03 in 0 W/m2
20:39 56.7 °F 53.8 °F 30 in WSW 13 mph 13 mph 90% 0.04 in 0 W/m2
20:44 56.1 °F 53.6 °F 30 in West 11 mph 12 mph 91% 0.05 in 0 W/m2
20:49 55.4 °F 52.5 °F 30 in WSW 12.1 mph 16 mph 90% 0.06 in 0 W/m2
20:54 54.9 °F 52 °F 30 in WNW 8.1 mph 15 mph 90% 0.06 in 0 W/m2
20:59 54.7 °F 52.2 °F 30 in WSW 16.1 mph 19 mph 91% 0.05 in 0 W/m2
Juneau County Weather
Compliments of Weather Underground - 2 mb